Погода Рудная Пристань

Погода Рудная Пристань : погода сейчас, прогноз погоды и архив. Всё, что Вы хотите узнать о погоде Рудная Пристань!

Хотите узнать прогноз погоды Рудная Пристань? Тогда Вам сюда: Погода Рудная Пристань

Поиск расширенной информации на нашем сайте:

Другие новости

Новости СМИ2

Главная страница сайта

Новости сайта

03.07.2017

Напоминаем, что на нашем специализированном сайте Метеоцентр.Азия вы можете получить высокодетализированные автоматические прогнозы погоды по пунктам России, СНГ и мира в авиационном формате (включающие направление и скорость ветра, видимость, явления погоды, количество и форму облачности, нижнюю и верхнюю границу облачности).

Рекомендуем: Нетбук в СВАО ремонт компьютеров компьютерная помощь одинцово VIP сервис

Погода Рудная Пристань - сегодня

Время (UTC), дата Ветер
(°,м/с) 
Видим.   Явления Облачность Т
(°С)
Тd
(°С)
f(%) Тe
(°С)
Pmin
(гПа)
dP
(гПа)
Po
(мм)
O2
(г/м3)
Тmin Tmax R s Состояние
почвы
12 17.06.18 290 (З) 20000 м    8/3 600 м средняя, верхняя 
[Sc|Ac lent|Ci sp]
+8.9 +8.3 96 +10  1009.4  0.7  754  293           
15 17.06.18 270 (З) 20000 м    ясно 
+8.4 +8.1 98 +8  1008.9  -0.5  754  293           
18 17.06.18 270 (З) 20000 м    ясно 
+7.7 +7.4 98 +8  1008.4  -0.5  753  294           
00 18.06.18 100 (В) 20000 м    3/0 верхняя 
[Ci fib]
+12.4 +9.7 84 +14  1009.1  -0.2  754  289           
03 18.06.18 100 (В) 20000 м    4/3 300 м верхняя 
[St|Ci fib]
+12.7 +9.4 80 +13  1008.6  -0.5  753  288           
06 18.06.18 080 (В) 1000 м  дымка  10/8 300 м верхняя 
[St|Ci sp]
+12.7 +11.4 92 +16  1007.9  -0.6  753  288           
12 18.06.18 100 (В) 0500 м  туман  ?/?  
+11.1 +10.8 98 +13  1007.3  -0.2  752  289           
15 18.06.18 060 (СВ) 0500 м  туман  ?/?  
+10.8 +10.7 99 +14  1007.2  0.1  752  290           
18 18.06.18 070 (В) 0500 м  туман  ?/?  
+10.8 +10.7 99 +14  1006.3  -0.9  752  289           
00 19.06.18 090 (В) 0500 м  туман  ?/?  
+12.1 +12.1 100 +16  1006.4  752  288           
03 19.06.18 090 (В) 0500 м  туман  3/3 600 м 
[Sc]
+13.3 +12.6 96 +18  1005.4  -1  751  286           
06 19.06.18 090 (В) 1000 м  дымка{туман}  10/8 300 м средняя 
[St|As op]
+12.8 +12.3 97 +17  1004.2  -1.1  750  286           
12 19.06.18 040 (СВ) 0500 м  туман  ?/?  
+12.1 +12 99 +17  1004.7  0.6  750  287           
15 19.06.18 тихо ()   0500 м  туман  ?/?  
+11.9 +11.9 100 +16  1004.3  -0.4  750  287           
18 19.06.18 тихо ()   0500 м  туман  ?/?  
+11.5 +11.4 99 +15  1003.5  -0.8  750  288           
00 20.06.18 090 (В) 0500 м  ливневой дождь{туман}  ?/?  
+11.9 +11.9 100 +16  1002.7  -0.1  749  287  +10.8         
03 20.06.18 190 (Ю) 4000 м  ливневой дождь  10/8 300 м кучево-дожд., средняя 
[Cb cap|As op]
+11.2 +11.2 100 +15  1001.5  -1.2  748  287           
06 20.06.18 080 (В) 20000 м  в посл. час ливневой дождь  10/8 300 м кучево-дожд., средняя 
[Cb cap|As op]
+11.9 +11.9 100 +16  999.9  -1.6  747  286           
12 20.06.18 120 (ЮВ) 10 км  слаб. ливневой дождь  10/8 600 м кучево-дожд., средняя 
[Cb cap|As op]
+11.3 +11.1 99 +15  999.9  0.5  747  287           
15 20.06.18 тихо ()   20000 м  {ливн. осадки}  10/8 600 м кучево-дожд., средняя 
[Cb cap|As op]
+11.5 +11.5 100 +15  999.1  -0.7  746  286           
18 20.06.18 тихо ()   4000 м  дымка{ливн. осадки}  10/8 600 м кучево-дожд., средняя 
[Cb cap|As op]
+11.7 +11.7 100 +15  998.5  -0.6  746  286           
03 21.06.18 110 (В) 4000 м  дымка  10/10 300 м 
[St]
+13.5 +12.7 95 +19  997.1  -0.8  745  283           
06 21.06.18 070 (В) 0500 м  туман  ?/?  
+12.1 +11.9 99 +17  996.7  -0.3  745  285           
12 21.06.18 280 (З) 20000 м  {ливн. осадки, туман}  6/6 600 м кучево-дожд. 
[Cb cap]
+13.3 +13.2 99 +21  997.5  1.3  745  284           
15 21.06.18 250 (З) 20000 м    8/8 600 м кучево-дожд. 
[Cb cap]
+13.9 +13.7 99 +22  998  0.5  746  283           
Время (UTC), дата Ветер
(°,м/с) 
Видим.   Явления Облачность Т
(°С)
Тd
(°С)
f(%) Тe
(°С)
Pmin
(гПа)
dP
(гПа)
Po
(мм)
O2
(г/м3)
Тmin Tmax R s Состояние
почвы

Для получения пояснительной информации подведите курсор к названию столбца.

ПОГОДА Рудная Пристань - архив

Всё, что Вы хотите узнать о погоде Рудная Пристань - удобно и подробно!

Выберите нужную дату (начиная с 1 января 2015* года) и нажмите кнопку "Найти".
Будут отображены архивные сводки погоды по пункту Рудная Пристань, начиная с указанной даты.


Отображать данные в формате CSV (для использования в таблицах Excel)


Внимание! Наш архив погоды предназначен исключительно для личного некоммерческого использования в познавательных целях. Если Вам необходимы официальные справки о состоянии погоды (для производственных, юридических, коммерческих и т.п. целей), обращайтесь в органы Росгидромета.

*Примечание: данная дата относится к архиву по метеостанциям СССР (Россия, СНГ, Балтия).
Архив по метеостанциям Зарубежной Европы и Азии (кроме Китая) хранится 10 дней, по другим регионам земного шара (Китай, Африка, Америка, Австралия, Океания) - 1 день.

Рудная Пристань - район местоположения метеостанции


Название, широта, долгота, высота метеостанции:
Рудная Пристань 44.4°ш. 135.9°д. 34 м над ур. моря [Российская Федерация]

Дополнительная информация

В oтличие oт бoльшинства пoгoдных сайтoв мы публикуем пoдрoбную метеoинфoрмацию в детальнoм прoфессиoнальнoм фoрмате.

Характеристики температуры и влажнoсти вoздуха измеряются на высoте 2 м в тени вдали oт зданий и деревьев.
Скoрoсть ветра измеряется на высoте 10 м (на урoвне рoста челoвека скoрoсть ветра ниже в 1.5-2 раза). Если метеoстанция нахoдится в гoрoде или в лесу, тo скoрoсть ветра занижена на 2-4 м/с пo сравнению с oткрытым местoм. Скoрoсть ветра над акватoриями крупных рек и oзёр, а также на вершинах хoлмoв на 2-5 м/с выше, чем в oбычных услoвиях.
Атмoсфернoе давление в разных тoчках местнoсти мoжет значительнo oтличаться oт давления на метеoстанции, в зависимoсти oт услoвий рельефа (при пoдъёме на 10 м давление пoнижается примернo на 1 мм рт.ст.).